{"data":{"norad_id":65096,"epoch":"2026-09-20T06:59:16.732896Z","epoch_age_seconds":138236,"freshness":"FRESH","line1":"1 65096U 25167U   26263.29116589  .00015650  00000+0  47323-3 0  9995","line2":"2 65096  53.1588 194.9760 0001243  84.2614 275.8530 15.34408846 63382","mean_motion":15.34408846,"eccentricity":0.0001243,"inclination_deg":53.1588,"raan_deg":194.976,"arg_perigee_deg":84.2614,"mean_anomaly_deg":275.853,"bstar":0.00047323,"rev_number":6338,"period_min":93.847217040875,"perigee_km":461.82663498345,"apogee_km":463.52726133096,"semimajor_km":6840.8139481572,"source":"CELESTRAK","updated_at":"2026-09-21T09:00:35.524698Z"}}